Regional Weather Roundup
Issued by NWS Grand Forks, ND

Home | Current Version | Previous Version | Text Only | Print | Product List | Glossary On
Versions: 1 2 3 4 5 6 7 8 9 10 11 12 13 14 15 16 17 18 19 20 21 22 23 24 25 26 27 28 29 30 31 32 33 34 35 36 37 38 39 40 41 42 43 44 45 46 47 48 49 50
000
ASUS43 KFGF 190931
RWRFGF
PRAIRIE TO PINES  WEATHER ROUNDUP
NATIONAL WEATHER SERVICE EASTERN NORTH DAKOTA/GRAND FORKS ND
300 AM CST FRI JAN 19 2018

 **SATELLITE DATA USED TO AUGMENT SKY COVER AT AUTOMATED STATIONS**
 *****  WEATHER ACROSS EASTERN NORTH DAKOTA  *****

CITY           SKY/WX    TMP DP  RH WIND       PRES   REMARKS
GRAND FORKS    FAIR      30  26  85 S7        29.48S WCI  23
GRAND FRKS AFB FAIR      38  29  70 W15       29.47S
GRAND FRKS NWS   N/A     28 N/A N/A S3          N/A
DEVILS LAKE    FAIR      30  26  85 SW10      29.50S WCI  21
FARGO          FAIR      31  26  82 S12         N/A  WCI  22
WAHPETON ARPT  FAIR      30  23  74 SE9       29.58F WCI  22
$$

 ***** WEATHER ACROSS CENTRAL AND WESTERN NORTH DAKOTA  *****

CITY           SKY/WX    TMP DP  RH WIND       PRES   REMARKS
BISMARCK       FAIR      27  24  89 CALM      29.56F
MINOT          FAIR      38  30  73 SW15      29.50R
JAMESTOWN      FAIR      38  29  70 W9        29.52F
MINOT AFB      CLOUDY    39  31  73 SW17      29.48R
GARRISON         N/A     34  27  75 VRB5      29.53F
WILLISTON      FAIR      54  31  41 SW9       29.55F
DICKINSON      FAIR      34  26  72 W9        29.56S
HETTINGER      FAIR      31  25  78 NW8       29.59F WCI  23
$$

 *****  OTHER AIRPORT OBSERVATIONS IN OUR AREA  *****

CITY           SKY/WX    TMP DP  RH WIND       PRES   REMARKS
WALHALLA       FAIR      41  32  70 W6        29.44R
GRAFTON AIRPOR FAIR      34  30  86 W7        29.48S
VALLEY CITY AR FAIR      27  27 100 S7        29.54F WCI  19
CANDO          FAIR      34  30  86 W12       29.49F
CAVALIER APRT    N/A     39  30  70 W18G24    29.43R
GWINNER          N/A     32  27  80 SW15      29.56F WCI  22
SHEYENNE NWR     N/A     33  29  85 SW10      29.95S WCI  25
ROLLA          FAIR      36  32  87 SW14      29.43S
 ***** THE ABOVE OBSERVATIONS ARE NON NWS ARE NOT QUALITY
       CONTROLLED AND MAY MIS-REPORT RAIN FOR SNOW...
$$

  *****  WEATHER ACROSS NORTHERN MINNESOTA  *****

CITY           SKY/WX    TMP DP  RH WIND       PRES   REMARKS
FLAG ISLAND    FAIR      23  21  93 S13       29.39F WCI  11
WARROAD        FAIR      30  27  86 SW10      29.43F WCI  21
ROSEAU         FAIR      28  25  86 S9        29.43F WCI  20
HALLOCK        FAIR      28  25  86 S15       29.44F WCI  17
THF RVR FALLS  FAIR      31  27  85 SW14      29.51R WCI  21
BAUDETTE       FAIR      27  22  81 S6        29.45F WCI  20
WASKISH        FAIR      34  27  75 SW7       29.48S
CROOKSTON      FAIR      28  27  93 S13       29.52R WCI  18
STEPHEN NDAWN    N/A     28  25  86 S13         N/A  WCI  18
GREENBUSH NDAW   N/A     28  25  86 S12         N/A  WCI  18
$$
  *****  WEATHER ACROSS CENTRAL AND WEST MINNESOTA  *****

CITY           SKY/WX    TMP DP  RH WIND       PRES   REMARKS
FOSSTON        FAIR      28  25  86 S17       29.50F WCI  16
BEMIDJI        FAIR      32  24  72 SW5       29.51S
PARK RAPIDS    FAIR      27  21  78 S8        29.55F WCI  19
ELBOW LAKE     FAIR      28  25  87 S8        29.60F WCI  20
WADENA         FAIR      30  23  74 SW5       29.57F
DETROIT LAKES  FAIR      32  27  80 S7        29.56F
MOORHEAD       FAIR      34  25  69 S12       29.57F
FERGUS FALLS   FAIR      28  23  80 S8        29.59F WCI  20
MORRIS MN      FAIR      28  25  86 S8        29.61F WCI  20
STAPLES        FAIR      27  23  86 S5        29.58F WCI  21
$$
  *****  WEATHER ELSEWHERE ACROSS MINNESOTA  *****

CITY           SKY/WX    TMP DP  RH WIND       PRES   REMARKS
DULUTH         FAIR      29  23  78 SW9       29.58F WCI  20
INTRNTL FALLS  FAIR      23  20  88 SE3       29.49F
ELY            FAIR      27  21  80 S6        29.52F WCI  20
CLOQUET        FAIR      28  23  80 SW7       29.58F WCI  21
WHEATON        FAIR      30  25  80 S8        29.61F WCI  23
BRAINERD       FAIR      31  25  78 SW7       29.60F WCI  24
HIBBING        FAIR      23  21  92 S3        29.55F
ALEXANDRIA     FAIR      31  25  78 SW10      29.61F WCI  22
SAINT CLOUD    FAIR      28  25  88 S6        29.65S WCI  22
MINNEAPOLIS    CLOUDY    31  27  85 S3        29.70F
$$

  *****  WEATHER ACROSS SOUTH DAKOTA  *****

CITY           SKY/WX    TMP DP  RH WIND       PRES   REMARKS
SIOUX FALLS    FAIR      27  24  89 MISG      29.68F
BROOKINGS      FAIR      28  26  92 SE8       29.66F WCI  20
WATERTOWN      FAIR      28  26  92 S8        29.63F WCI  20
HURON          FAIR      28  26  92 SE7       29.63F WCI  21
SISSETON         N/A     43  27  53 W16G24    29.56F
ABERDEEN       FAIR      27  25  92 S5        29.61F WCI  22
MITCHELL       FAIR      32  28  85 S14       29.64F WCI  22
PIERRE         FAIR      24  23  96 CALM      29.60F
MOBRIDGE       FAIR      30  24  78 SE7       29.55F WCI  23
RAPID CITY     FAIR      41  28  60 E5        29.61F
$$

  *****  SOME WEATHER IN NEARBY STATES *****

CITY           SKY/WX    TMP DP  RH WIND       PRES   REMARKS
GLASGOW MT     CLOUDY    38  32  79 NW12      29.59R
GREAT FALLS MT CLOUDY    35  31  85 S15       29.64F
CHEYENNE WY    FAIR      42  18  37 SW9       29.87F
SCOTTSBLUFF NE FAIR      34  28  79 CALM      29.79F
OMAHA NE       MOCLDY    28  23  81 SE12      29.83F WCI  18
DES MOINES IA  FAIR      31  22  69 SW7       29.84F WCI  24
DAVENPORT IA   FAIR      31  20  63 SW14      29.93S WCI  21
CHICAGO IL     FAIR      29  18  63 SW13      29.93S WCI  19
EAU CLAIRE WI  FAIR      22  20  92 S3        29.73S
LA CROSSE WI   FAIR      26  20  77 S6        29.79F WCI  19
$$

  *****  SOME NATIONAL WEATHER *****

CITY           SKY/WX    TMP DP  RH WIND       PRES   REMARKS
LA GUARDIA NY  FAIR      27  12  53 W8        30.05R WCI  19
RALEIGH NC     FAIR      22  19  89 SW3       30.20F
ATLANTA GA     FAIR      27  14  58 NW8       30.29S WCI  19
NEW ORLEANS LA FAIR      31  26  82 CALM      30.38F
OKLAHOMA CITY  FAIR      27  14  58 S10       30.10F WCI  17
ALBUQUERQUE NM MOCLDY    36  11  35 SE3       30.16F
SALT LAKE CITY MOCLDY    56  28  34 S25G33    29.82F
LOS ANGELES CA FAIR      59  57  93 CALM      30.04S
BOISE ID       CLOUDY    38  36  92 S6        29.82F
SEATTLE WA     MOCLDY    41  35  79 S8        29.82R
$$

*** WEATHER ACROSS MANITOBA...SASKATCHEWAN AND ONTARIO ***
                ***ONTARIO***

CITY           SKY/WX    TMP DP  RH WIND       PRES   REMARKS
GERALDTON      FLURRIES  18  16  93 VRB2      29.54F
THUNDER BAY    PTCLDY    23  23 100 W3        29.59F
SIOUX LOOKOUT  CLOUDY    23  23 100 S7        29.40F WCI  15
TORONTO        CLOUDY    25  16  68 SW15      29.90R WCI  12
BIG TROUT LK   LGT SNOW   7   3  85 E9        29.44F WCI  -7
PICKLE LAKE    NOT AVBL
DRYDEN         CLOUDY    25  23  93 S14       29.38F WCI  13
KENORA         CLOUDY    23  21  93 S13       29.36F WCI  11
$$
                *** MANITOBA***

CITY           SKY/WX    TMP DP  RH WIND       PRES   REMARKS
BRANDON        CLOUDY    37  30  75 W18       29.37F
DAUPHIN        CLEAR     39  32  75 W16       29.27F
ISLAND LAKE    CLOUDY    16  10  79 E6        29.32S WCI   7
PILOT MOUND      N/A     34  30  86 SW15        N/A  WCI  24
THE PAS        LGT SNOW  12   9  85 N6        29.29R WCI   3
THOMPSON       LGT SNOW   5   1  85 NE12      29.39S WCI -11
WINNIPEG       CLOUDY    32  27  80 SW17G23   29.36S WCI  21
LYNN LAKE      FLURRIES   5   3  92 E9        29.39R WCI  -9
CHURCHILL      FLURRIES  -2  -6  84 E3        29.69S
GILLAM         LGT SNOW   0  -4  85 NE10      29.50F WCI -17
$$
                ***SASKATCHEWAN***

CITY           SKY/WX    TMP DP  RH WIND       PRES   REMARKS
ESTEVAN        CLOUDY    37  30  75 W15       29.46F
KINDERSLEY     PTCLDY    28  23  80 W14G22    29.44R WCI  17
LLOYDMINSTER   MOCLDY    32  28  86 W10       29.35F WCI  24
PRINCE ALBERT  CLOUDY    30  25  80 W7        29.32R WCI  23
REGINA         CLOUDY    34  27  75 W14G21    29.41R WCI  24
YORKTON        CLOUDY    36  32  87 SW15G21   29.30S
N. BATTLEFORD  CLEAR     32  25  74 NW12G18   29.38R WCI  23
LA RONGE       LGT SNOW  18  14  86 NE6       29.30R WCI   9
SASKATOON      MOCLDY    32  28  86 W8        29.36S WCI  25
SWIFT CURRENT  MOCLDY    34  27  75 W21G31    29.45F WCI  22
$$
NOTE: THESE ARE AUTOMATED STATIONS WITH LIMITED QUALITY CONTROL
      "FAIR" INDICATES FEW OR NO CLOUDS BELOW 12,000 FEET WITH NO
      SIGNIFICANT WEATHER AND/OR OBSTRUCTIONS TO VISIBILITY.
      SKY/WX - SKY CONDITION AND SIGNIFICANT WEATHER.
      TMP - AIR TEMPERATURE.    DP   - DEWPOINT TEMPERATURE.
      RH  - RELATIVE HUMIDITY.  PRES - PRESSURE.
      HX  - HEAT INDEX.         WCI  - WIND CHILL INDEX.
$




USA.gov is the U.S. government's official web portal to all federal, state and local government web resources and services.